Moshoeshoe I International Airport

Jump to: basic info | weather | frequencies | runways | comments

Related pages: nearby airports | nearby navaids | notams | map

Basic information (top)

Codes: MSU FXMM
Location: lon -29.462299, lat 27.552500, elev 5,348 ft / 1,630 m msl
Status: medium_airport
Scheduled airline service: yes
Links: Wikipedia Mobile

Weather (top)

Current conditions (rec'd 2015/01/27 15:00Z):

FXMM 271500Z 00000KT 9999 TS BKN030 FEW035CB OVC/// 20/15 Q1021 NOSIG

Airport forecast (rec'd 2015/01/27 12:00Z):

TAF FXMM 270945Z 2712/2812 36005KT 9999 SCT035 FEW040CB PROB30 2713/2720 28015KT 6000 TSRA OVC030 FEW035CB 
     FM272200 03005KT //// FEW040 BKN100 
      BECMG 2808/2810 03010KT SCT035

Frequencies (top)

Verify before use: may be inaccurate or out of date.

APP: 120.7 MHz (MASERU APP)
GND: 121.7 MHz (MASERU GND)
TWR: 118.5 MHz (MASERU TWR)

Runways (top)

04/22: 10,498 x 148 ft (3,200 x 45 m) — paved — lighted — threshold 04 displaced 656 ft (200 m)

11/29: 3,314 x 75 ft (1,010 x 23 m) — paved — lighted

Latest comments (top)

lost items from lugage: I flew home on January 7,2010 a ... [read]

More... (top)

See also NOTAMs and nearby airports and navaids, or visit the Moshoeshoe I International Airport page at the main OurAirports website..